This is the latest recevied weather packets stored in our database for station/object BRIVER. If no packets are shown the sender has not sent any weather packets the latest 10 day(s).
| Time | Temp. | Humidity | Pressure | Rain* | Wind** | Luminosity | Snow |
|---|---|---|---|---|---|---|---|
| 1777682737 | 12.22° C | 83% | 1010.9 hPa | 0 mm | - | - | - |
| 1777682437 | 12.22° C | 83% | 1010.8 hPa | 0 mm | - | - | - |
| 1777682137 | 12.22° C | 83% | 1011.1 hPa | 0 mm | - | - | - |
| 1777682078 | 12.22° C | 82% | 1011 hPa | 0 mm | - | - | - |
| 1777681837 | 12.22° C | 82% | 1011 hPa | 0 mm | - | - | - |
| 1777681537 | 12.78° C | 81% | 1011 hPa | 0 mm | - | - | - |
| 1777681237 | 12.78° C | 81% | 1011.2 hPa | 0 mm | - | - | - |
| 1777680998 | 12.78° C | 80% | 1011.2 hPa | 0 mm | - | - | - |
| 1777680937 | 12.78° C | 80% | 1011.1 hPa | 0 mm | - | - | - |
| 1777680637 | 12.78° C | 79% | 1011.1 hPa | 0 mm | - | - | - |
| 1777680458 | 13.33° C | 78% | 1011 hPa | 0 mm | - | - | - |
| 1777680337 | 13.33° C | 78% | 1011 hPa | 0 mm | - | - | - |
| 1777680037 | 13.89° C | 77% | 1011.1 hPa | 0 mm | - | - | - |
| 1777679919 | 13.89° C | 77% | 1011.1 hPa | 0 mm | - | - | - |
| 1777679737 | 13.89° C | 78% | 1011.2 hPa | 0 mm | - | - | - |
| 1777679437 | 13.89° C | 76% | 1011.2 hPa | 0 mm | - | - | - |
| 1777679378 | 13.89° C | 75% | 1011.2 hPa | 0 mm | - | - | - |
| 1777679137 | 13.89° C | 74% | 1011.2 hPa | 0 mm | - | - | - |
| 1777678837 | 14.44° C | 75% | 1011.2 hPa | 0 mm | - | - | - |
| 1777678537 | 13.89° C | 73% | 1011.2 hPa | 0 mm | - | - | - |
| 1777678298 | 14.44° C | 73% | 1011.1 hPa | 0 mm | - | - | - |
| 1777678237 | 14.44° C | 72% | 1011.1 hPa | 0 mm | - | - | - |
| 1777677937 | 14.44° C | 71% | 1011.3 hPa | 0 mm | - | - | - |
| 1777677761 | 14.44° C | 70% | 1011.3 hPa | 0 mm | - | - | - |
| 1777677637 | 14.44° C | 71% | 1011.4 hPa | 0 mm | - | - | - |
* Rain latest hour (hover to see other rain measurements)
** Current wind speed in m/s (hover to see current wind gust speed)